Terminal Aerodrome Forecast
Issued by NWS

Home | Current Version | Previous Version | Text Only | Print | Product List | Glossary On
Versions: 1 2 3 4 5 6 7 8 9 10 11 12 13 14 15 16 17 18
802
FTUS43 KAPX 161953 AAA
TAFPLN
TAF AMD
KPLN 161953Z 1620/1718 33005KT P6SM SCT020
     FM170800 24006KT P6SM BKN025
     FM171300 24012KT P6SM SCT028 BKN100=

USA.gov is the U.S. government's official web portal to all federal, state and local government web resources and services.